User: anonymous   Login
Location: Unspecified
(0.0000°N, 0.0000°E)
Time: 22:50:36
(UTC+00:00)
Language:

Feng Yun - Orbit

View from above orbital plane
View from above orbital plane
View from above satellite
View from above satellite

Ground track
Ground track

The orbit data is extracted from the following two-line orbital elements,

1 24834U 97029A   17113.72965988 -.00000084 +00000-0 +00000-0 0  9998
2 24834 013.6467 031.4102 0099634 157.2389 021.8274 00.96050626071294
Epoch (UTC): 23 April 2017 17:30:42
Eccentricity: 0.0099634
inclination: 13.6467°
perigee height: 36580 km
apogee height: 37445 km
right ascension of ascending node: 31.4102°
argument of perigee: 157.2389°
revolutions per day: 0.96050626
mean anomaly at epoch: 21.8274°
orbit number at epoch: 7129

The dashed part of the orbit path shows where the satellite is in the earth's shadow,  

DLR